Vorticity
10 10 10 10 10 10 10 9 8 7 7 6 6 5 5 4 3 3 4 4 4 5 5 6 6 6 6 6 5 5 4 4 5 6 6 7 8 8 9 8 8 7 7 7 7 7 7 8 8 8 9 9 9 10 11 11 12 12 12 12 12 12 12 12 12 12 11 10 9
10 10 10 10 11 10 10 10 9 8 7 6 6 5 5 4 4 3 3 4 4 5 5 6 6 6 7 6 6 5 5 4 5 5 6 7 8 8 9 8 8 8 7 7 7 7 7 7 7 8 8 8 9 9 10 11 12 12 12 12 12 12 13 13 13 13 12 11 11
10 10 10 11 11 11 10 10 9 8 8 7 6 6 5 4 4 3 3 4 4 5 5 5 6 6 7 7 6 6 5 5 4 5 6 6 7 8 8 8 8 8 7 7 6 6 6 6 7 7 7 8 8 9 10 10 11 12 12 12 13 13 13 13 14 14 13 12 12
9 10 10 10 11 11 11 10 10 9 8 7 7 6 5 5 4 4 3 4 5 5 5 5 6 6 7 7 7 6 5 5 5 5 5 6 7 7 8 8 8 7 7 7 6 6 6 6 6 6 7 7 8 8 9 9 11 12 12 12 13 13 14 14 14 14 14 13 13
10 10 10 10 11 11 11 11 10 10 9 8 7 6 6 5 4 4 4 4 4 4 5 5 6 6 7 7 7 6 6 5 5 5 5 5 6 7 7 8 8 7 7 7 6 6 5 5 6 6 6 7 7 8 8 9 10 11 12 12 13 13 14 14 14 14 14 14 14
10 10 10 10 11 11 11 11 11 10 9 9 8 7 6 5 5 4 4 4 4 4 5 5 6 6 7 7 7 7 6 5 5 5 5 5 6 6 7 7 7 7 7 7 6 6 5 5 5 5 5 6 6 7 7 8 9 10 10 12 13 13 14 14 15 14 14 15 15
10 10 10 11 11 11 11 11 11 11 10 9 8 8 7 6 5 4 4 3 4 4 5 5 5 6 7 7 8 7 7 6 5 5 4 4 5 6 7 7 7 7 6 6 6 6 5 5 4 4 4 5 5 6 6 7 8 9 9 10 11 12 13 14 14 14 15 15 15
10 10 10 10 11 11 11 12 11 11 11 10 9 8 7 6 5 4 4 4 4 4 5 5 6 6 7 7 8 8 7 6 5 5 4 4 4 5 6 6 6 6 6 6 5 5 5 4 4 4 3 4 4 4 5 5 6 7 8 8 9 10 11 12 13 14 15 15 15
10 10 10 11 11 11 11 12 12 12 11 11 10 8 7 6 6 5 4 4 4 4 5 5 6 6 7 7 8 8 7 7 6 5 4 4 4 5 5 6 6 6 5 5 5 5 4 4 4 3 3 3 3 3 3 4 5 5 6 6 7 8 9 10 12 13 14 14 15
10 10 11 11 11 11 11 12 12 12 12 11 10 9 8 7 6 5 5 4 4 4 5 5 6 6 6 7 7 8 8 7 7 6 5 4 4 4 4 5 5 5 5 5 4 4 4 3 3 3 3 3 3 3 3 3 3 4 4 5 5 6 7 8 9 11 12 13 14
10 10 11 11 11 11 12 12 12 12 12 12 11 10 9 8 6 6 5 4 4 4 5 5 6 6 6 7 7 8 8 8 7 6 6 5 4 4 4 5 5 4 4 4 4 3 3 3 3 2 2 2 2 2 2 2 2 3 3 3 4 4 5 5 7 8 9 11 12
11 11 11 11 11 11 12 12 12 13 13 12 11 10 9 8 7 6 5 5 5 4 4 5 6 6 6 7 7 8 8 8 7 7 6 6 5 4 4 4 5 4 4 4 3 3 3 3 2 2 2 2 2 2 2 2 2 2 2 2 3 3 3 4 4 5 6 7 9
11 11 11 11 11 12 12 12 13 13 13 12 12 11 10 9 7 6 5 5 5 5 5 5 6 6 6 7 7 7 8 8 8 7 7 6 6 5 4 4 4 4 4 4 3 3 3 2 2 2 2 2 2 2 2 2 2 2 2 2 2 3 3 3 3 3 4 5 6
11 11 11 11 11 12 12 12 13 13 13 13 12 11 10 9 8 7 6 5 5 5 5 5 6 6 6 7 7 7 8 8 8 7 7 7 6 6 5 4 4 4 4 4 3 3 3 2 2 2 2 2 2 2 2 2 2 2 2 2 2 3 3 3 3 3 3 3 4
11 11 11 11 11 12 12 13 13 13 13 13 13 12 11 10 9 7 6 5 5 5 5 5 6 6 6 7 7 7 7 8 8 8 8 7 7 6 6 5 5 5 4 4 4 3 3 2 2 2 2 2 2 2 2 2 2 2 2 2 2 3 3 3 3 3 3 2 3
11 11 11 11 11 12 12 13 13 13 13 13 13 12 12 10 9 8 6 6 5 5 5 6 6 6 6 6 7 7 7 8 8 8 8 8 8 7 7 6 5 5 5 4 4 3 3 2 2 2 2 2 2 2 2 2 2 2 2 2 3 3 3 3 3 3 3 3 3
12 11 11 11 11 12 12 13 13 13 13 13 13 13 12 11 10 8 7 6 5 5 5 6 6 6 6 7 7 7 7 7 8 8 8 8 8 8 7 7 6 6 5 5 4 4 3 3 2 2 2 2 2 2 2 2 2 2 2 2 3 3 3 3 4 4 4 4 3
12 12 11 11 11 12 12 13 13 13 13 13 13 13 12 11 10 9 8 6 6 5 5 5 6 6 6 7 7 7 7 7 8 8 8 8 8 8 8 7 7 6 6 6 5 5 4 3 3 2 2 2 2 2 2 2 2 2 2 2 3 3 3 3 4 4 4 4 4
13 12 12 11 12 12 12 13 13 13 14 13 13 13 12 12 11 9 8 7 6 6 6 5 6 6 6 6 7 7 7 7 8 8 8 8 8 8 8 8 7 7 7 7 6 6 5 4 3 3 2 2 2 2 2 2 2 2 2 2 3 3 3 3 4 4 4 4 4
13 13 12 12 12 12 12 13 13 13 14 14 13 13 13 12 11 10 9 8 7 6 6 6 6 6 6 6 7 7 7 7 7 8 8 8 8 8 8 8 8 8 7 7 7 6 6 5 4 4 3 3 2 2 2 2 2 2 2 2 3 3 3 3 3 4 4 4 4
13 13 13 12 12 12 12 13 13 13 14 14 14 13 13 12 11 10 9 8 7 6 6 6 6 6 6 6 6 7 7 7 7 8 8 8 8 8 8 8 8 8 8 8 7 7 6 6 5 4 4 3 3 2 2 2 2 2 2 3 3 3 3 3 3 4 4 4 4
13 13 13 13 12 12 12 12 13 13 14 14 14 14 13 12 11 10 9 8 7 7 6 6 6 6 6 6 6 7 7 7 7 7 8 8 8 8 8 8 8 8 8 8 8 7 7 6 6 5 4 4 4 3 3 3 2 3 3 3 3 3 3 3 4 4 4 4 4
13 13 13 13 13 12 12 12 13 13 13 14 14 14 13 13 12 11 10 9 8 7 7 6 6 6 6 6 6 6 7 7 7 7 7 7 8 8 8 8 8 8 8 8 8 7 7 6 6 5 5 4 4 4 3 3 3 3 3 3 3 3 4 4 4 4 4 4 4
12 13 13 13 13 13 12 12 12 13 13 14 14 14 14 13 12 11 10 9 8 8 7 6 6 6 6 6 6 6 6 7 7 7 7 7 8 8 8 8 8 8 8 8 7 7 6 6 5 5 5 5 4 4 4 4 4 4 4 4 4 4 4 4 5 5 5 5 5
11 12 13 13 13 13 12 12 12 13 13 13 14 14 14 13 12 11 10 9 9 8 7 7 6 6 6 6 6 6 6 7 6 7 7 7 7 7 7 7 7 8 8 8 7 7 6 6 6 5 5 5 5 5 5 5 4 4 4 4 5 5 5 5 5 5 5 5 5
10 11 12 13 13 13 12 12 12 12 13 13 13 14 14 13 13 12 11 10 9 8 7 7 6 6 6 6 6 6 7 7 6 6 6 7 7 7 7 7 7 7 7 7 7 6 6 6 6 6 5 5 5 5 5 5 5 5 5 5 5 6 6 6 6 6 6 6 6
9 10 11 12 13 13 13 12 12 12 12 13 13 13 14 13 13 12 11 10 9 8 8 7 7 6 6 6 6 6 6 6 7 7 6 6 7 7 7 7 7 7 7 7 6 6 6 6 6 6 6 6 6 5 5 6 6 6 6 6 6 6 7 7 7 7 7 7 7
8 9 10 12 12 12 13 13 12 12 12 12 13 13 13 13 13 13 12 10 9 9 8 8 7 6 6 6 6 6 6 6 6 6 6 6 7 7 7 7 7 7 7 6 6 6 6 6 6 6 6 6 6 6 6 6 6 6 7 7 7 7 8 8 8 8 8 7 7
7 8 9 10 11 12 13 12 12 12 12 12 12 13 13 13 13 13 12 11 10 9 8 8 7 6 6 6 6 6 6 6 6 6 6 6 7 7 7 7 7 7 7 7 7 7 7 7 7 7 7 7 7 7 7 7 7 7 7 8 8 8 8 8 9 9 9 8 8
7 8 8 9 11 12 12 12 12 12 12 12 12 13 13 13 13 13 12 11 10 9 8 7 7 7 7 6 6 6 6 6 6 6 6 6 7 7 7 7 7 7 7 7 7 7 7 7 7 7 8 8 8 8 8 8 8 8 8 8 8 9 9 9 9 9 9 9 8
8 8 8 9 10 11 12 13 13 13 12 12 12 12 13 13 13 13 12 11 10 9 8 8 7 7 6 6 6 6 6 5 6 6 6 6 6 7 7 7 7 7 7 8 8 8 8 8 8 8 8 8 9 9 9 9 9 9 9 8 9 9 9 9 10 9 9 9 9
8 8 8 8 9 10 12 13 13 13 13 12 12 12 13 13 13 13 12 12 11 10 9 8 8 7 7 6 6 6 6 5 6 6 6 6 6 7 7 7 7 7 7 8 8 8 8 8 8 8 9 9 9 9 9 9 9 9 9 9 9 9 9 10 10 10 10 9 9
8 8 8 8 8 9 11 12 13 13 13 13 13 13 13 13 13 13 12 12 11 10 10 9 8 7 7 6 6 6 6 5 5 5 6 6 6 7 7 7 7 8 8 8 8 8 8 8 8 9 9 9 9 9 9 9 9 9 9 9 10 10 10 10 10 10 10 9 9
8 8 7 7 8 8 10 11 12 13 13 13 13 13 13 13 13 13 13 12 12 11 10 9 8 8 7 7 6 6 6 5 5 6 6 6 7 7 7 8 8 8 8 8 8 8 8 8 9 9 9 9 9 9 9 9 9 9 9 10 10 10 10 10 10 10 9 9 9
8 8 8 8 8 8 9 10 11 12 13 13 13 13 13 13 13 13 13 12 12 11 11 10 9 8 8 7 7 6 6 5 6 6 6 6 7 7 8 8 8 8 8 8 8 8 8 9 9 9 9 9 9 9 9 9 9 9 9 9 10 10 10 10 10 10 9 9 9
9 9 9 9 9 9 9 9 10 11 12 13 13 13 13 12 12 13 13 13 12 12 11 10 9 9 8 8 7 6 6 5 5 6 6 6 7 7 8 8 8 8 8 9 9 9 9 9 9 9 9 9 9 9 9 9 9 9 9 10 10 10 10 10 10 9 9 9 9
8 9 9 9 9 9 9 10 10 11 11 12 12 12 12 12 12 13 13 13 13 12 12 10 10 9 8 8 7 6 6 5 5 6 6 7 7 7 8 8 8 8 9 9 9 9 9 9 9 9 9 9 9 9 9 9 10 10 10 10 10 10 10 10 9 9 9 9 9
6 7 9 9 10 10 10 10 10 10 11 11 12 12 12 12 12 13 13 13 13 13 12 11 10 9 8 8 7 6 6 6 5 6 6 7 7 8 8 8 9 9 9 9 9 9 9 9 9 9 9 9 9 9 9 9 10 10 10 10 10 10 10 9 9 9 9 9 9
2 5 7 8 9 10 11 11 11 11 10 10 11 11 12 12 12 13 13 13 14 13 12 11 10 9 8 7 7 6 6 6 6 6 6 7 8 8 8 9 9 9 9 9 9 9 9 9 9 9 9 9 9 9 9 10 10 10 10 10 10 10 9 9 9 9 9 9 9
-0 1 3 6 8 10 11 12 11 11 10 10 11 11 12 12 12 13 13 13 14 13 12 11 10 9 8 7 7 6 6 6 6 6 7 7 8 8 9 9 9 9 9 9 9 9 9 9 9 9 9 10 10 10 10 10 10 10 10 10 10 9 9 9 9 9 9 10 10
-1 -1 -0 2 5 8 10 12 12 11 11 10 10 11 11 12 12 13 13 14 14 13 12 11 10 9 8 7 6 6 6 6 7 7 7 7 8 9 9 9 9 9 9 9 9 9 9 9 9 9 9 10 10 10 10 10 10 10 10 10 10 9 9 9 9 10 10 10 10
Height
3041 3042 3042 3043 3043 3044 3045 3046 3047 3047 3048 3049 3050 3050 3051 3052 3052 3053 3053 3053 3053 3053 3053 3053 3053 3053 3053 3053 3052 3052 3052 3052 3051 3051 3051 3050 3050 3049 3049 3048 3048 3047 3046 3045 3044 3043 3043 3042 3041 3040 3039 3039 3038 3037 3036 3035 3034 3033 3031 3030 3029 3028 3026 3025 3024 3023 3021 3020 3019
3040 3040 3041 3042 3042 3043 3043 3044 3045 3046 3047 3048 3048 3049 3050 3051 3051 3052 3052 3052 3053 3053 3053 3053 3053 3052 3052 3052 3052 3052 3052 3051 3051 3051 3050 3050 3050 3049 3049 3048 3047 3046 3045 3044 3044 3043 3042 3042 3041 3040 3039 3038 3038 3037 3036 3035 3034 3033 3031 3030 3029 3027 3026 3025 3024 3023 3021 3020 3018
3038 3039 3040 3040 3041 3042 3042 3043 3044 3045 3046 3047 3047 3048 3049 3049 3050 3051 3051 3051 3052 3052 3052 3052 3052 3051 3051 3051 3051 3051 3051 3051 3051 3050 3050 3050 3049 3049 3048 3048 3047 3046 3045 3044 3043 3043 3042 3041 3041 3040 3039 3038 3038 3037 3036 3035 3034 3033 3031 3030 3029 3028 3026 3025 3024 3023 3021 3020 3018
3037 3038 3038 3039 3040 3040 3041 3042 3043 3043 3044 3045 3046 3047 3048 3048 3049 3049 3050 3050 3051 3051 3051 3051 3051 3051 3050 3050 3050 3050 3050 3050 3050 3050 3050 3049 3049 3049 3048 3048 3047 3046 3045 3044 3043 3043 3042 3041 3041 3040 3039 3039 3038 3037 3036 3035 3034 3033 3032 3030 3029 3028 3026 3025 3024 3023 3021 3020 3018
3036 3037 3037 3038 3038 3039 3040 3041 3041 3042 3043 3044 3045 3046 3046 3047 3048 3048 3049 3049 3049 3050 3050 3050 3050 3050 3050 3050 3050 3050 3050 3050 3049 3049 3049 3049 3049 3048 3048 3048 3047 3046 3045 3044 3043 3043 3042 3041 3041 3040 3039 3039 3038 3038 3037 3036 3034 3033 3032 3031 3029 3028 3027 3025 3024 3023 3021 3020 3019
3035 3035 3036 3036 3037 3038 3038 3039 3040 3041 3042 3043 3043 3044 3045 3046 3047 3047 3048 3048 3048 3049 3049 3049 3049 3049 3049 3049 3049 3049 3049 3049 3049 3049 3049 3048 3048 3048 3048 3047 3047 3046 3045 3044 3043 3043 3042 3041 3040 3040 3039 3039 3038 3038 3037 3036 3035 3033 3032 3031 3030 3028 3027 3026 3024 3023 3022 3020 3019
3033 3034 3034 3035 3036 3037 3037 3038 3039 3040 3040 3041 3042 3043 3044 3044 3045 3046 3047 3047 3048 3048 3048 3048 3048 3048 3048 3048 3048 3048 3048 3048 3048 3048 3048 3048 3048 3048 3047 3047 3046 3046 3045 3044 3043 3043 3042 3041 3040 3040 3039 3039 3038 3038 3037 3036 3035 3034 3033 3031 3030 3029 3028 3026 3025 3023 3022 3021 3019
3032 3033 3033 3034 3034 3035 3036 3037 3037 3038 3039 3040 3041 3042 3042 3043 3044 3045 3045 3046 3046 3047 3047 3047 3047 3047 3047 3048 3048 3048 3048 3048 3048 3048 3048 3048 3048 3047 3047 3046 3046 3045 3045 3044 3043 3043 3042 3041 3040 3040 3039 3039 3039 3038 3037 3037 3035 3034 3033 3032 3031 3029 3028 3027 3025 3024 3023 3021 3020
3031 3031 3032 3033 3033 3034 3034 3035 3036 3037 3038 3038 3039 3040 3041 3042 3043 3043 3044 3045 3045 3045 3046 3046 3046 3046 3046 3047 3047 3047 3047 3047 3047 3047 3047 3047 3047 3047 3046 3046 3046 3045 3044 3044 3043 3043 3042 3041 3040 3040 3040 3039 3039 3038 3038 3037 3036 3035 3034 3033 3031 3030 3028 3027 3026 3024 3023 3022 3020
3029 3030 3031 3031 3032 3033 3033 3034 3035 3035 3036 3037 3038 3039 3039 3040 3041 3042 3043 3043 3044 3044 3045 3045 3045 3045 3045 3046 3046 3046 3046 3046 3046 3046 3046 3046 3046 3046 3046 3045 3045 3045 3044 3044 3043 3043 3042 3041 3040 3040 3040 3039 3039 3038 3038 3037 3036 3035 3034 3033 3032 3030 3029 3028 3027 3025 3024 3023 3021
3028 3028 3029 3030 3030 3031 3032 3033 3033 3034 3035 3036 3036 3037 3038 3039 3040 3041 3042 3042 3043 3043 3043 3044 3044 3044 3044 3045 3045 3045 3045 3045 3045 3045 3045 3045 3045 3045 3045 3045 3045 3044 3044 3043 3043 3042 3042 3041 3040 3040 3040 3039 3039 3038 3038 3037 3036 3035 3034 3033 3032 3031 3030 3029 3028 3026 3025 3023 3022
3027 3027 3028 3028 3029 3030 3030 3031 3032 3033 3033 3034 3035 3036 3037 3038 3038 3039 3040 3041 3042 3042 3043 3043 3043 3043 3043 3044 3044 3044 3044 3044 3044 3044 3044 3044 3044 3045 3044 3044 3044 3044 3043 3043 3043 3042 3042 3041 3040 3040 3039 3039 3039 3038 3038 3037 3036 3036 3035 3034 3033 3032 3031 3029 3028 3027 3025 3024 3023
3025 3026 3026 3027 3028 3028 3029 3029 3030 3031 3032 3033 3033 3034 3035 3036 3037 3038 3039 3039 3040 3041 3041 3042 3042 3042 3043 3043 3043 3043 3043 3043 3043 3043 3043 3043 3044 3044 3044 3044 3043 3043 3043 3043 3043 3042 3042 3041 3040 3040 3039 3039 3039 3038 3038 3037 3037 3036 3035 3034 3033 3032 3031 3030 3029 3028 3026 3025 3024
3024 3024 3025 3025 3026 3027 3028 3028 3029 3029 3030 3031 3032 3033 3034 3035 3036 3037 3037 3038 3039 3039 3040 3041 3041 3041 3041 3042 3042 3042 3042 3042 3042 3042 3042 3043 3043 3043 3043 3043 3043 3043 3043 3043 3042 3042 3041 3041 3040 3040 3039 3039 3039 3038 3038 3037 3037 3036 3035 3034 3033 3033 3032 3030 3029 3028 3027 3026 3025
3022 3023 3023 3024 3025 3025 3026 3027 3028 3028 3029 3030 3030 3031 3032 3033 3034 3035 3036 3037 3038 3038 3039 3039 3040 3040 3040 3040 3041 3041 3041 3041 3041 3041 3041 3042 3042 3042 3042 3042 3042 3042 3042 3042 3042 3042 3041 3041 3040 3040 3039 3039 3038 3038 3038 3037 3037 3036 3035 3034 3033 3033 3032 3031 3030 3029 3028 3027 3026
3021 3021 3022 3023 3023 3024 3025 3025 3026 3027 3028 3028 3029 3030 3031 3032 3033 3034 3034 3035 3036 3037 3038 3038 3038 3039 3039 3039 3039 3040 3040 3040 3040 3040 3040 3040 3041 3041 3041 3041 3041 3041 3041 3041 3041 3041 3041 3040 3040 3039 3039 3039 3038 3038 3038 3037 3037 3036 3035 3034 3033 3033 3032 3031 3030 3029 3028 3027 3026
3019 3020 3020 3021 3022 3023 3023 3024 3025 3025 3026 3027 3028 3028 3029 3030 3031 3032 3033 3034 3035 3036 3036 3037 3037 3038 3038 3038 3038 3038 3039 3039 3039 3039 3039 3039 3040 3040 3040 3040 3040 3041 3041 3041 3041 3040 3040 3040 3040 3039 3039 3038 3038 3038 3037 3037 3036 3036 3035 3034 3034 3033 3032 3031 3030 3029 3029 3028 3027
3018 3018 3019 3020 3020 3021 3022 3023 3023 3024 3025 3025 3026 3027 3028 3029 3030 3031 3032 3033 3033 3034 3035 3035 3036 3036 3037 3037 3037 3038 3038 3038 3038 3038 3038 3038 3039 3039 3039 3039 3039 3040 3040 3040 3040 3040 3040 3039 3039 3039 3038 3038 3038 3038 3037 3037 3036 3036 3035 3034 3034 3033 3032 3031 3031 3030 3029 3028 3027
3017 3017 3018 3018 3019 3019 3020 3021 3022 3023 3023 3024 3025 3025 3026 3027 3028 3029 3030 3031 3032 3033 3033 3034 3034 3035 3035 3036 3036 3036 3037 3037 3037 3037 3037 3038 3038 3038 3038 3038 3039 3039 3039 3039 3039 3039 3039 3039 3039 3038 3038 3038 3038 3037 3037 3036 3036 3035 3035 3034 3033 3033 3032 3032 3031 3030 3029 3028 3028
3015 3015 3016 3017 3017 3018 3019 3019 3020 3021 3022 3023 3023 3024 3025 3026 3027 3028 3028 3029 3030 3031 3032 3033 3033 3033 3034 3034 3035 3035 3036 3036 3036 3036 3036 3037 3037 3037 3037 3038 3038 3038 3038 3038 3038 3038 3038 3038 3038 3038 3038 3037 3037 3037 3036 3036 3036 3035 3035 3034 3033 3033 3032 3032 3031 3030 3029 3028 3028
3013 3014 3014 3015 3016 3017 3017 3018 3019 3020 3020 3021 3022 3023 3023 3024 3025 3026 3027 3028 3029 3030 3031 3031 3032 3032 3033 3033 3034 3034 3034 3035 3035 3035 3035 3036 3036 3036 3036 3037 3037 3037 3037 3038 3038 3038 3038 3038 3037 3037 3037 3037 3036 3036 3036 3035 3035 3035 3034 3034 3033 3033 3032 3032 3031 3030 3029 3028 3028
3012 3012 3013 3014 3014 3015 3016 3017 3018 3018 3019 3020 3021 3021 3022 3023 3024 3025 3026 3027 3028 3028 3029 3030 3030 3031 3031 3032 3033 3033 3033 3034 3034 3034 3034 3035 3035 3035 3035 3036 3036 3036 3036 3037 3037 3037 3037 3037 3037 3037 3036 3036 3036 3036 3035 3035 3035 3034 3034 3033 3033 3033 3032 3031 3031 3030 3029 3028 3028
3010 3011 3011 3012 3013 3013 3014 3015 3016 3017 3018 3018 3019 3020 3021 3022 3022 3023 3024 3025 3026 3027 3028 3028 3029 3029 3030 3031 3031 3032 3032 3033 3033 3033 3033 3034 3034 3034 3034 3035 3035 3035 3035 3036 3036 3036 3036 3036 3036 3036 3036 3035 3035 3035 3035 3034 3034 3034 3033 3033 3033 3032 3032 3031 3031 3030 3029 3028 3028
3008 3009 3010 3010 3011 3012 3013 3013 3014 3015 3016 3017 3018 3018 3019 3020 3021 3022 3023 3023 3024 3025 3026 3027 3028 3028 3029 3029 3030 3030 3031 3031 3032 3032 3032 3033 3033 3033 3033 3033 3034 3034 3034 3035 3035 3035 3035 3035 3035 3035 3035 3035 3034 3034 3034 3034 3033 3033 3033 3033 3032 3032 3031 3031 3030 3030 3029 3028 3028
3006 3007 3008 3008 3009 3010 3011 3012 3013 3013 3014 3015 3016 3017 3018 3018 3019 3020 3021 3022 3023 3024 3025 3025 3026 3027 3027 3028 3028 3029 3030 3030 3030 3031 3031 3031 3032 3032 3032 3033 3033 3033 3033 3034 3034 3034 3034 3034 3034 3034 3034 3034 3034 3033 3033 3033 3033 3033 3033 3032 3032 3031 3031 3030 3030 3029 3029 3028 3028
3004 3005 3006 3007 3008 3008 3009 3010 3011 3012 3013 3013 3014 3015 3016 3017 3018 3018 3019 3020 3021 3022 3023 3024 3024 3025 3026 3027 3027 3028 3028 3029 3029 3029 3030 3030 3031 3031 3031 3032 3032 3032 3033 3033 3033 3033 3033 3033 3033 3033 3033 3033 3033 3033 3033 3033 3032 3032 3032 3032 3031 3031 3031 3030 3029 3029 3028 3028 3027
3002 3003 3004 3005 3006 3007 3008 3008 3009 3010 3011 3012 3013 3013 3014 3015 3016 3017 3018 3019 3020 3021 3022 3022 3023 3024 3024 3025 3026 3026 3027 3028 3028 3028 3029 3029 3029 3030 3030 3030 3031 3031 3032 3032 3032 3032 3032 3032 3032 3032 3032 3032 3032 3032 3032 3032 3032 3031 3031 3031 3031 3030 3030 3029 3029 3028 3028 3028 3027
3000 3001 3002 3003 3004 3005 3006 3007 3008 3008 3009 3010 3011 3012 3013 3014 3015 3015 3016 3017 3018 3019 3020 3021 3022 3022 3023 3023 3024 3025 3025 3026 3027 3027 3028 3028 3028 3028 3029 3029 3030 3030 3030 3031 3031 3031 3031 3031 3031 3031 3031 3031 3031 3031 3031 3031 3031 3031 3030 3030 3030 3030 3029 3029 3028 3028 3028 3027 3027
2999 2999 3000 3001 3002 3003 3004 3005 3006 3007 3008 3008 3009 3010 3011 3012 3013 3014 3015 3016 3017 3018 3018 3019 3020 3021 3022 3022 3023 3023 3024 3025 3025 3026 3026 3027 3027 3027 3028 3028 3028 3029 3029 3030 3030 3030 3030 3030 3030 3030 3030 3030 3030 3030 3030 3030 3030 3030 3029 3029 3029 3029 3028 3028 3028 3028 3027 3027 3026
2998 2998 2999 3000 3001 3001 3002 3003 3004 3005 3006 3007 3008 3008 3009 3010 3011 3012 3013 3014 3015 3016 3017 3018 3018 3019 3020 3021 3021 3022 3023 3023 3024 3024 3025 3025 3026 3026 3026 3027 3027 3028 3028 3028 3029 3029 3029 3029 3029 3029 3029 3029 3029 3029 3029 3029 3029 3029 3028 3028 3028 3028 3028 3028 3027 3027 3027 3026 3026
2996 2997 2998 2998 2999 3000 3001 3002 3002 3003 3004 3005 3006 3007 3008 3009 3010 3011 3011 3012 3013 3014 3015 3016 3017 3018 3018 3019 3020 3021 3021 3022 3023 3023 3023 3024 3024 3025 3025 3025 3026 3026 3027 3027 3028 3028 3028 3028 3028 3028 3028 3028 3028 3028 3028 3028 3028 3028 3028 3028 3027 3027 3027 3027 3026 3026 3026 3025 3025
2995 2996 2996 2997 2998 2998 2999 3000 3001 3002 3003 3003 3004 3005 3006 3007 3008 3009 3010 3011 3012 3013 3014 3015 3015 3016 3017 3018 3018 3019 3020 3020 3021 3022 3022 3023 3023 3023 3024 3024 3025 3025 3025 3026 3026 3026 3027 3027 3027 3027 3027 3027 3027 3027 3027 3027 3027 3027 3027 3027 3026 3026 3026 3026 3026 3025 3025 3025 3025
2994 2995 2995 2996 2996 2997 2998 2998 2999 3000 3001 3002 3003 3003 3004 3005 3006 3007 3008 3009 3010 3011 3012 3013 3014 3015 3015 3016 3017 3018 3018 3019 3019 3020 3021 3021 3022 3022 3023 3023 3023 3024 3024 3024 3025 3025 3025 3026 3026 3026 3026 3026 3026 3026 3026 3026 3026 3026 3026 3026 3026 3025 3025 3025 3025 3025 3024 3024 3024
2993 2993 2994 2994 2995 2996 2996 2997 2998 2999 2999 3000 3001 3002 3003 3004 3005 3005 3006 3007 3008 3009 3010 3011 3012 3013 3014 3015 3016 3016 3017 3018 3018 3019 3019 3020 3020 3021 3021 3022 3022 3023 3023 3023 3023 3024 3024 3024 3025 3025 3025 3025 3025 3025 3025 3025 3025 3025 3025 3025 3025 3024 3024 3024 3024 3024 3024 3024 3023
2992 2992 2993 2993 2993 2994 2995 2996 2997 2997 2998 2999 3000 3000 3001 3002 3003 3004 3005 3006 3007 3008 3009 3010 3011 3012 3013 3013 3014 3015 3015 3016 3017 3017 3018 3018 3019 3019 3020 3020 3021 3021 3022 3022 3022 3023 3023 3023 3023 3024 3024 3024 3024 3024 3024 3024 3024 3024 3024 3024 3024 3024 3023 3023 3023 3023 3023 3023 3023
2990 2991 2991 2992 2992 2993 2993 2994 2995 2996 2997 2998 2998 2999 3000 3000 3001 3002 3003 3004 3005 3006 3007 3008 3009 3010 3011 3012 3013 3013 3014 3015 3015 3016 3016 3017 3018 3018 3018 3019 3019 3020 3020 3021 3021 3021 3022 3022 3022 3023 3023 3023 3023 3023 3023 3023 3023 3023 3023 3023 3023 3023 3023 3023 3023 3023 3023 3023 3023
2989 2989 2990 2990 2990 2991 2992 2993 2993 2994 2995 2996 2997 2997 2998 2999 3000 3000 3001 3003 3003 3004 3005 3006 3007 3008 3009 3010 3011 3012 3013 3013 3014 3014 3015 3016 3016 3017 3017 3017 3018 3018 3019 3019 3020 3020 3020 3021 3021 3021 3022 3022 3022 3022 3022 3022 3022 3022 3022 3022 3022 3022 3022 3022 3022 3022 3022 3022 3022
2987 2988 2988 2988 2989 2990 2990 2991 2992 2993 2993 2994 2995 2996 2996 2997 2998 2999 3000 3001 3002 3003 3004 3005 3006 3007 3008 3008 3009 3010 3011 3012 3012 3013 3013 3014 3015 3015 3016 3016 3017 3017 3018 3018 3018 3019 3019 3019 3020 3020 3020 3020 3020 3021 3021 3021 3021 3021 3021 3021 3021 3021 3021 3021 3021 3021 3021 3021 3021
2985 2986 2986 2987 2988 2988 2989 2989 2990 2991 2992 2993 2993 2994 2995 2996 2996 2997 2998 2999 3000 3001 3002 3003 3004 3005 3006 3007 3008 3008 3009 3010 3011 3011 3012 3013 3013 3014 3014 3015 3015 3016 3016 3017 3017 3018 3018 3018 3018 3019 3019 3019 3019 3019 3020 3020 3020 3020 3020 3020 3020 3020 3020 3020 3020 3020 3020 3020 3020
2983 2984 2984 2985 2986 2986 2987 2988 2988 2989 2990 2991 2991 2992 2993 2994 2995 2996 2997 2998 2998 2999 3000 3001 3002 3003 3004 3005 3006 3007 3008 3008 3009 3010 3010 3011 3012 3012 3013 3013 3014 3014 3015 3015 3016 3016 3017 3017 3017 3018 3018 3018 3018 3018 3018 3019 3019 3019 3019 3019 3019 3019 3019 3019 3020 3020 3020 3020 3020
2981 2982 2983 2983 2984 2985 2985 2986 2987 2987 2988 2989 2990 2990 2991 2992 2993 2994 2995 2996 2997 2998 2999 3000 3001 3002 3003 3003 3004 3005 3006 3007 3007 3008 3009 3009 3010 3011 3011 3012 3012 3013 3013 3014 3014 3015 3015 3016 3016 3016 3017 3017 3017 3017 3018 3018 3018 3018 3018 3018 3018 3019 3019 3019 3019 3019 3019 3019 3019